This demonstration page uses our WeatherBlox Daily Observations layout. Learn more.

36.17497, -115.13722

Hourly Observations for April 12, 2018

Temp ( °F °C ) Dew Point ( °F °C ) Humidity (%) Winds ( mph kmh ) Pressure ( in mb ) Visibility ( mi km ) Precip ( " mm )
12:53 am 00:53 Clear 73 22.8 32 0 22 22 WSW 23 37 29.62 1003 10 16.09344 0 0
1:53 am 01:53 Clear 71 21.7 32 0 24 24 SW 37 59 29.59 1002 10 16.09344 0 0
2:53 am 02:53 Clear 68 20 29 -1.7 23 23 SW 30 48 29.62 1003 10 16.09344 0 0
3:53 am 03:53 Clear 67 19.4 21 -6.1 17 17 WSW 26 43 29.62 1003 10 16.09344 0 0
4:53 am 04:53 Clear 65 18.3 14 -10 14 14 WSW 32 52 29.62 1003 10 16.09344 0 0
5:53 am 05:53 Clear 63 17.2 15 -9.4 15 15 WSW 17 28 29.62 1003 10 16.09344 0 0
6:53 am 06:53 Sunny 61 16.1 18 -7.8 19 19 W 20 31 29.65 1004 10 16.09344 0 0
7:53 am 07:53 Sunny 61 16.1 22 -5.6 22 22 WSW 30 48 29.68 1005 10 16.09344 0 0
8:53 am 08:53 Sunny 63 17.2 22 -5.6 21 21 WSW 15 24 29.71 1006 10 16.09344 0 0
9:28 am 09:28 Sunny 67 19.4 17 -8.3 15 15 N 23 37 29.65 1004 10 16.09344 0 0
9:53 am 09:53 Sunny 67 19.4 19 -7.2 16 16 N 28 44 29.74 1007 10 16.09344 0 0
10:53 am 10:53 Sunny 67 19.4 17 -8.3 15 15 NNW 22 35 29.77 1008 10 16.09344 0 0
11:53 am 11:53 Sunny 68 20 3 -16.1 7 7 N 29 46 29.77 1008 10 16.09344 0 0
12:53 pm 12:53 Sunny 70 21.1 -2 -18.9 5 5 N 29 46 29.77 1008 10 16.09344 0 0
1:53 pm 13:53 Sunny 70 21.1 -3 -19.4 5 5 N 30 48 29.77 1008 10 16.09344 0 0
2:53 pm 14:53 Sunny 70 21.1 -3 -19.4 5 5 NNW 30 48 29.8 1009 10 16.09344 0 0
3:53 pm 15:53 Sunny 69 20.6 -6 -21.1 5 5 N 33 54 29.8 1009 10 16.09344 0 0
4:53 pm 16:53 Sunny 67 19.4 -9 -22.8 4 4 N 29 46 29.83 1010 10 16.09344 0 0
5:53 pm 17:53 Sunny 65 18.3 -13 -25 4 4 NNW 25 41 29.85 1011 10 16.09344 0 0
6:53 pm 18:53 Sunny 63 17.2 -11 -23.9 4 4 NW 28 44 29.91 1013 10 16.09344 0 0
7:53 pm 19:53 Clear 61 16.1 -8 -22.2 6 6 NNW 26 43 29.94 1014 10 16.09344 0 0
8:53 pm 20:53 Clear 60 15.6 -6 -21.1 6 6 NNW 21 33 30 1016 10 16.09344 0 0
9:53 pm 21:53 Clear 59 15 -4 -20 7 7 NNW 26 43 30.03 1017 10 16.09344 0 0
10:53 pm 22:53 Clear 58 14.4 -3 -19.4 8 8 NNW 18 30 30.06 1018 10 16.09344 0 0
11:53 pm 23:53 Clear 56 13.3 -1 -18.3 9 9 N 16 26 30.09 1019 10 16.09344 0 0

Powered by AerisWeather